CAPE
24 17 32 42 41 24 35 23 35 25 18 22 78 118 691 720 244 176 145 0 0 1 0 0 0 0 0 0 0 0 0 0 0 0 0 8 21 31
22 22 33 42 35 30 26 25 25 23 20 38 43 145 545 732 535 208 80 0 1 0 0 0 0 0 0 0 0 0 0 0 0 0 0 0 6 14
16 18 19 30 40 36 42 34 27 24 20 20 95 83 299 1157 815 465 424 39 8 0 0 0 0 0 1 1 0 0 0 0 0 0 0 0 0 7
15 14 19 18 22 23 49 32 32 23 25 24 18 95 230 462 797 747 324 123 24 1 0 0 0 0 0 1 0 0 0 0 0 0 0 0 0 0
16 18 15 21 26 40 36 36 47 29 29 25 13 25 244 622 842 615 266 110 63 12 1 0 0 0 0 1 0 0 0 0 0 0 0 0 0 0
20 21 17 30 37 40 38 35 38 34 20 22 20 12 148 352 822 478 359 22 45 1 0 0 0 0 0 0 0 0 0 0 0 0 0 0 0 0
30 28 40 41 31 32 55 35 29 23 28 21 34 17 41 59 336 443 243 17 20 28 0 0 0 0 0 0 0 0 0 0 0 0 0 0 0 0
42 39 29 32 23 15 16 16 27 22 24 13 27 4 3 3 232 270 205 0 0 0 0 0 0 0 0 1 0 0 0 0 0 0 0 0 0 0
55 40 41 49 26 33 15 8 13 11 5 10 14 6 2 3 0 337 192 158 42 7 0 0 0 0 1 0 1 1 0 0 0 0 0 0 0 0
58 46 30 32 39 24 32 20 29 12 18 18 11 2 0 6 6 4 3 1 0 0 0 0 1 0 1 0 1 1 0 0 0 0 0 0 1 0
15 30 32 20 16 20 35 22 21 14 11 9 7 9 2 1 3 5 4 0 1 1 1 0 1 1 0 0 0 1 1 1 0 0 0 0 0 0
14 13 6 19 11 13 28 24 15 13 19 15 5 2 2 2 0 12 3 1 0 1 0 1 0 0 1 0 0 0 0 1 1 1 1 1 0 0
18 15 20 8 11 10 11 21 22 20 16 16 15 8 7 6 6 2 4 3 0 0 0 0 1 1 1 1 1 1 0 0 0 0 1 0 0 0
25 18 26 10 9 7 13 7 6 9 24 20 15 17 10 9 12 7 3 3 2 0 0 0 1 0 0 1 0 2 1 0 0 0 1 0 0 0
19 21 8 8 7 9 5 5 5 24 21 16 19 17 19 16 10 5 4 0 1 0 0 0 0 0 0 1 0 1 0 1 0 3 5 1 0 0
9 18 11 8 6 15 21 19 12 23 20 20 27 30 26 23 11 15 10 6 2 2 3 1 0 0 0 0 0 0 1 0 1 3 2 5 4 3
20 23 21 17 13 13 12 14 12 10 20 33 26 27 21 14 14 22 15 8 6 8 7 4 2 2 1 0 1 0 0 0 0 2 1 2 3 1
16 21 24 22 19 16 14 18 23 22 22 15 18 18 17 15 15 16 19 11 10 8 10 8 7 7 4 3 1 3 2 3 2 2 2 1 2 4
19 22 22 22 22 17 16 18 23 24 22 18 18 18 16 13 27 11 13 12 13 11 7 7 7 9 8 8 5 0 8 4 3 3 2 1 2 3
20 22 21 21 19 19 19 18 17 21 22 23 25 27 23 18 18 17 15 19 13 7 10 9 6 9 9 13 7 6 0 7 4 4 3 2 3 0
22 23 26 22 23 20 29 27 36 40 35 31 25 28 33 24 14 15 16 12 13 12 12 8 4 0 3 10 10 9 7 0 1 4 2 3 3 4
24 26 24 26 22 21 33 34 26 21 28 32 38 35 36 29 19 23 14 16 18 17 13 15 9 8 8 8 7 26 5 5 0 0 0 0 1 3
25 26 25 24 23 21 21 31 25 30 30 19 21 18 29 17 15 15 14 11 12 13 9 12 13 8 6 8 11 18 15 5 4 4 4 0 0 0
CIN
-0 -0 -0 -0 -0 -0 -0 -0 -0 -0 -0 -0 -0 -11 -0 -0 -23 -58 -102 -0 -0 -0 -0 -0 -0 -0 -0 -0 -0 -0 -0 -0 -0 -0 -0 -1 -0 -0
-0 -0 -0 -0 -0 -0 -0 -0 -0 -0 -0 -0 -0 -0 -0 -0 -6 -49 -51 -0 -0 -0 -0 -0 -0 -0 -0 -0 -0 -0 -0 -0 -0 -0 -0 -0 -1 -1
-0 -0 -0 -0 -0 -0 -0 -0 -0 -0 -0 -0 -0 -0 -5 -0 -0 -0 -1 -40 -53 -0 -0 -0 -0 -0 -0 -0 -0 -0 -0 -0 -0 -0 -0 -0 -0 -0
-0 -0 -0 -0 -0 -0 -0 -0 -0 -0 -0 -0 -0 -0 -3 -0 -0 -0 -0 -20 -47 -0 -0 -0 -0 -0 -0 -0 -0 -0 -0 -0 -0 -0 -0 -0 -0 -0
-0 -0 -0 -0 -0 -0 -0 -0 -0 -0 -0 -0 -0 -0 -5 -0 -0 -1 -3 -25 -55 -30 -0 -0 -0 -0 -0 -0 -0 -0 -0 -0 -0 -0 -0 -0 -0 -0
-0 -0 -0 -0 -0 -0 -0 -0 -0 -0 -0 -0 -0 -0 -6 -0 -1 -1 -1 -43 -94 -2 -0 -0 -0 -0 -0 -0 -0 -0 -0 -0 -0 -0 -0 -0 -0 -0
-0 -0 -0 -0 -0 -0 -0 -0 -0 -0 -0 -0 -0 -0 -1 -3 -0 -1 -3 -61 -76 -121 -0 -0 -0 -0 -0 -0 -0 -0 -0 -0 -0 -0 -0 -0 -0 -0
-0 -0 -0 -0 -0 -0 -0 -0 -0 -0 -0 -0 -0 -0 -0 -18 -23 -8 -9 -0 -0 -0 -0 -0 -0 -0 -0 -0 -0 -0 -0 -0 -0 -0 -0 -0 -0 -0
-0 -0 -0 -0 -0 -0 -0 -0 -0 -0 -0 -0 -0 -0 -0 -0 -0 -4 -25 -15 -6 -14 -0 -0 -0 -0 -0 -0 -0 -0 -0 -0 -0 -0 -0 -0 -0 -0
-0 -0 -0 -0 -0 -0 -0 -0 -0 -0 -0 -0 -0 -0 -0 -0 -0 -0 -0 -0 -0 -0 -0 -0 -0 -0 -0 -0 -0 -0 -0 -0 -0 -0 -0 -0 -0 -0
-0 -0 -0 -0 -0 -0 -0 -0 -0 -0 -0 -0 -0 -0 -0 -0 -0 -0 -0 -0 -0 -0 -0 -0 -0 -0 -0 -0 -0 -0 -0 -0 -0 -0 -0 -0 -0 -0
-0 -0 -0 -0 -0 -0 -0 -0 -0 -0 -0 -0 -0 -0 -0 -0 -0 -0 -0 -0 -0 -0 -0 -0 -0 -0 -0 -0 -0 -0 -0 -0 -0 -0 -0 -0 -0 -0
-0 -0 -0 -0 -0 -0 -0 -0 -0 -0 -0 -0 -0 -0 -0 -0 -0 -0 -0 -0 -0 -0 -0 -0 -0 -0 -0 -0 -0 -0 -0 -0 -0 -0 -0 -0 -0 -0
-0 -0 -0 -0 -0 -0 -0 -0 -0 -0 -0 -0 -0 -0 -0 -0 -0 -0 -0 -0 -0 -0 -0 -0 -0 -0 -0 -0 -0 -0 -0 -0 -0 -0 -0 -0 -0 -0
-0 -0 -0 -0 -0 -0 -0 -0 -0 -0 -0 -0 -0 -0 -0 -0 -0 -0 -0 -0 -0 -0 -0 -0 -0 -0 -0 -0 -0 -0 -0 -0 -0 -0 -0 -0 -0 -0
-0 -0 -0 -0 -0 -0 -0 -0 -0 -0 -0 -0 -0 -0 -0 -0 -0 -0 -0 -0 -0 -0 -0 -0 -0 -0 -0 -0 -0 -0 -0 -0 -0 -0 -0 -0 -0 -0
-0 -0 -0 -0 -0 -0 -0 -0 -0 -0 -0 -0 -0 -0 -0 -0 -0 -0 -0 -0 -0 -0 -0 -0 -0 -0 -0 -0 -0 -0 -0 -0 -0 -0 -0 -0 -0 -0
-0 -0 -0 -0 -0 -0 -0 -0 -0 -0 -0 -0 -0 -0 -0 -0 -0 -0 -0 -0 -0 -0 -0 -0 -0 -0 -0 -0 -0 -0 -0 -0 -0 -0 -0 -0 -0 -0
-0 -0 -0 -0 -0 -0 -0 -0 -0 -0 -0 -0 -0 -0 -0 -0 -0 -0 -0 -0 -0 -0 -0 -0 -0 -0 -0 -0 -0 -0 -0 -0 -0 -0 -0 -0 -0 -0
-0 -0 -0 -0 -0 -0 -0 -0 -0 -0 -0 -0 -0 -0 -0 -0 -0 -0 -0 -0 -0 -0 -0 -0 -0 -0 -0 -0 -0 -0 -0 -0 -0 -0 -0 -0 -0 -0
-0 -0 -0 -0 -0 -0 -0 -0 -0 -0 -0 -0 -0 -0 -0 -0 -0 -0 -0 -0 -0 -0 -0 -0 -0 -0 -0 -0 -0 -0 -0 -0 -0 -0 -0 -0 -0 -0
-0 -0 -0 -0 -0 -0 -0 -0 -0 -0 -0 -0 -0 -0 -0 -0 -0 -0 -0 -0 -0 -0 -0 -0 -0 -0 -0 -0 -0 -0 -0 -0 -0 -0 -0 -0 -0 -0
-0 -0 -0 -0 -0 -0 -0 -0 -0 -0 -0 -0 -0 -0 -0 -0 -0 -0 -0 -0 -0 -0 -0 -0 -0 -0 -0 -0 -0 -0 -0 -0 -0 -0 -0 -0 -0 -0
Wind_Speed
13 14 13 11 10 11 10 10 13 15 18 17 18 18 15 14 17 18 20 26 31 31 32 32 31 27 29 31 32 32 32 32 31 30 31 31 30 29
11 15 14 11 11 9 12 9 11 13 19 16 20 20 17 15 18 21 20 20 27 30 32 32 31 32 29 30 32 32 32 32 31 31 30 30 30 30
16 16 17 16 11 10 10 10 11 11 16 17 18 23 23 21 18 17 17 17 17 31 30 30 30 30 28 28 31 33 33 32 32 31 31 31 31 31
18 17 17 12 16 15 11 16 13 14 14 20 19 21 24 22 19 19 18 15 15 22 29 29 29 31 30 30 33 33 33 32 31 31 32 31 32 31
18 17 17 17 15 13 14 15 14 12 13 13 18 19 19 18 18 18 16 14 12 14 25 26 28 29 27 27 29 30 30 30 29 29 29 30 30 30
16 16 17 16 17 18 16 17 15 14 14 14 15 16 18 20 17 14 13 11 11 10 13 16 22 26 27 28 28 29 28 31 32 31 30 28 27 29
14 15 14 18 21 19 14 16 17 14 11 13 16 14 17 15 22 14 13 8 11 10 7 8 8 10 12 18 22 27 29 32 32 33 33 31 30 30
15 14 15 18 18 22 26 28 21 15 14 12 14 13 20 17 12 11 11 7 9 4 9 8 9 9 9 10 20 21 26 29 30 30 31 31 30 31
14 14 14 11 19 18 23 27 19 21 14 14 15 12 15 8 4 15 13 13 10 7 9 7 7 9 8 8 17 20 22 25 25 26 27 27 28 29
13 13 15 16 17 22 18 19 15 14 15 12 13 11 11 16 4 3 3 2 4 2 3 5 2 4 4 6 17 21 22 21 22 23 24 24 24 26
16 14 14 16 26 28 18 18 16 14 16 23 23 17 15 17 12 1 3 2 1 1 2 4 3 3 2 3 4 14 17 19 20 21 22 22 22 25
16 15 19 20 27 26 17 15 18 15 16 14 12 12 15 13 14 11 6 4 2 3 4 2 2 4 2 1 2 3 4 7 11 14 15 16 15 9
13 14 13 27 26 24 23 14 17 20 16 11 11 8 8 11 11 11 8 6 4 2 3 5 2 2 3 3 2 2 2 3 3 3 8 12 11 13
14 13 15 28 25 22 18 25 23 15 11 9 8 8 10 11 10 10 9 7 2 1 6 6 3 2 2 1 3 2 2 2 2 2 3 5 9 12
14 18 23 24 22 16 20 21 17 12 11 10 11 10 10 8 9 9 7 8 7 6 6 6 5 2 1 2 3 2 3 2 2 2 4 4 4 3
18 13 14 16 16 15 14 14 11 11 11 11 12 11 11 10 10 10 9 8 5 4 1 3 5 3 2 2 2 1 2 3 2 2 2 2 3 3
17 11 11 12 13 13 12 13 13 13 13 13 12 12 12 11 10 10 9 8 6 6 6 5 2 2 2 2 1 2 2 2 3 3 1 2 1 1
11 11 11 12 12 14 13 13 12 15 13 12 11 12 12 11 10 9 8 7 5 5 5 5 5 4 0 1 3 1 1 2 3 3 1 2 2 2
10 11 12 12 12 12 13 13 13 12 14 11 12 12 11 11 12 9 9 9 9 8 8 6 5 4 2 1 2 2 1 3 3 3 2 1 2 2
10 11 11 12 13 13 12 12 13 12 12 12 12 12 11 11 11 11 10 10 9 8 7 6 4 4 3 4 3 2 3 2 2 3 3 2 4 7
11 11 11 11 12 12 12 12 13 12 12 12 11 11 11 11 11 10 9 11 11 7 7 6 6 6 6 3 3 2 2 3 2 2 4 4 3 2
11 11 11 11 11 12 12 12 12 13 12 12 12 11 11 11 11 12 11 10 10 8 8 7 7 5 4 5 5 1 2 2 6 9 7 4 2 4
11 11 11 11 11 11 12 12 13 12 12 12 12 12 11 11 11 10 10 10 10 10 9 8 7 5 5 6 6 3 4 4 3 3 3 5 6 4
Wind_Direction
309 305 296 290 290 283 287 284 279 290 278 278 272 261 234 223 219 212 212 204 201 196 199 203 201 203 206 202 203 205 208 208 209 211 213 212 213 217
309 310 301 294 292 284 276 289 278 282 283 280 270 271 244 226 218 215 218 208 202 207 207 204 201 200 203 204 203 203 206 206 206 208 212 214 213 213
313 311 305 302 295 294 279 277 280 280 276 289 270 268 256 230 221 214 213 203 208 203 203 204 201 202 199 201 205 205 205 205 205 205 208 211 213 215
316 311 307 309 304 297 293 293 285 279 276 284 275 273 246 234 224 214 215 215 210 200 205 205 206 203 201 202 208 205 203 205 205 205 205 208 210 213
317 313 312 311 308 307 305 299 295 284 281 279 276 279 256 239 227 219 212 209 210 197 194 202 206 205 198 200 202 203 199 201 202 204 205 205 208 211
317 313 311 311 312 315 312 308 305 297 290 291 283 264 264 236 224 206 203 196 196 202 194 201 205 204 199 200 205 199 201 205 202 201 201 201 203 207
319 316 313 310 317 320 313 311 309 309 298 299 293 273 260 244 217 204 203 184 197 194 181 191 191 201 202 207 211 205 205 207 206 207 205 204 203 205
322 324 316 319 327 322 319 316 309 309 310 307 306 297 277 222 210 195 188 177 197 189 180 183 181 195 198 194 205 208 210 207 206 206 207 206 209 210
324 324 324 327 330 326 321 317 312 311 308 297 301 315 316 308 221 189 186 193 198 166 182 185 177 195 190 186 187 199 202 203 204 207 209 209 208 207
329 328 329 330 331 329 326 315 325 319 317 317 313 330 335 301 42 46 28 140 37 7 142 155 167 181 157 193 181 194 202 201 209 205 208 207 208 211
335 340 335 338 332 332 328 321 323 324 319 332 337 332 315 357 15 106 74 116 8 227 321 113 187 111 146 173 169 193 199 203 204 206 208 209 209 211
334 338 340 346 336 337 335 334 328 336 324 333 334 329 338 350 351 44 46 77 52 19 1 136 145 141 138 186 124 148 149 198 201 203 205 206 204 210
332 336 338 342 339 341 346 344 340 330 333 338 334 333 326 3 360 25 24 51 50 58 12 2 252 131 71 117 109 102 126 108 129 172 187 207 190 199
333 333 334 334 339 341 347 347 347 346 332 342 352 345 356 341 2 14 9 29 57 42 328 341 317 53 78 89 130 118 78 95 133 119 114 175 188 197
343 324 332 335 337 344 348 354 354 345 345 352 346 354 352 352 360 2 6 8 26 36 33 15 307 333 38 61 99 103 130 102 96 132 167 174 162 144
339 329 336 341 343 347 352 354 1 350 349 352 347 347 350 357 8 6 4 8 11 24 88 66 340 324 62 88 71 84 111 121 128 158 132 160 160 173
320 337 347 350 349 350 354 354 351 357 360 352 347 351 357 1 3 4 4 1 13 5 342 355 17 342 26 70 145 168 147 137 133 134 162 138 149 150
336 348 349 351 351 347 349 350 353 355 354 346 345 352 353 357 357 360 357 359 359 6 321 339 8 345 0 182 282 142 116 128 124 143 141 154 137 137
353 350 348 348 348 349 347 346 349 349 343 348 342 348 348 345 354 1 1 1 352 350 331 333 4 341 299 227 119 358 193 139 141 144 139 87 95 109
356 349 348 345 344 345 346 344 343 342 346 343 342 345 349 349 352 356 354 348 344 328 319 340 12 352 336 10 354 32 13 98 138 131 127 88 74 93
351 348 347 344 342 341 342 342 341 342 343 342 344 340 342 344 343 342 337 336 331 342 337 335 342 329 304 288 238 212 109 39 15 118 137 127 132 150
345 344 344 342 342 341 339 339 340 343 344 344 340 338 341 336 336 336 337 334 331 327 320 319 318 319 299 272 268 197 119 92 70 80 65 67 151 196
342 341 339 342 341 341 338 339 339 339 340 337 334 335 332 330 328 327 325 326 328 329 326 327 328 307 271 269 283 256 141 152 139 132 93 27 26 72